Tracking 23762 objects as of 21-Oct-2021
HD Live streaming from Space Station
objects crossing your sky now

OSCAR 5

Track OSCAR 5 now!
10-day predictions
OSCAR 5 is classified as:


NORAD ID: 4321
Int'l Code: 1970-008B
Perigee: 1,441.0 km
Apogee: 1,484.2 km
Inclination: 101.5 °
Period: 115.0 minutes
Semi major axis: 7833 km
RCS: 0.3365 m2 (medium)
Launch date: January 23, 1970
Source: Australia (AUS)
Launch site: AIR FORCE WESTERN TEST RANGE (AFWTR)

Uplink (MHz):
Downlink (MHz): 29.450
Beacon (MHz): 144.050
Mode: CW
Call sign:
Status: Inactive

aabbcc
Your satellite tracking list
Your tracking list is empty




NASA's NSSDC Master Catalog

Two Line Element Set (TLE):
1 04321U 70008B   21293.41419196 -.00000036  00000-0  47024-4 0  9998
2 04321 101.5226 346.6153 0027568 344.7270  84.7393 12.52159374364570
Source of the keplerian elements: AFSPC